Dewpoint
68 68 68 67 66 67 68 68 68 70 70 70 70 70 70 71 70 71 70 69 69 70
69 68 67 68 68 68 68 68 68 69 70 70 70 70 69 70 69 70 69 69 70 69
69 69 68 68 68 69 68 69 69 69 70 70 70 70 70 69 69 69 69 69 70 69
69 69 69 68 67 69 69 70 70 70 70 70 70 70 70 70 70 69 69 69 69 69
68 70 69 68 69 69 69 70 70 70 69 69 70 69 70 70 71 70 69 69 68 68
69 69 69 69 70 69 68 68 70 70 69 68 69 70 69 69 69 70 69 69 69 69
69 69 69 69 69 69 69 68 68 70 70 69 69 69 70 70 70 70 70 71 71 71
67 68 69 69 69 70 70 69 69 70 70 70 70 70 70 71 71 70 70 71 71 71
64 65 67 68 69 69 70 70 70 70 70 70 71 68 68 70 71 71 71 70 69 71
66 64 64 67 68 69 69 69 69 70 69 70 70 66 66 67 70 70 69 69 70 70
66 65 65 66 67 68 68 69 69 69 69 69 69 64 64 65 69 69 69 69 70 69
66 65 66 66 67 66 67 67 67 68 69 68 67 59 61 65 68 68 68 69 66 64
66 66 67 67 67 67 67 66 67 66 65 63 62 59 59 63 66 66 66 61 60 59
66 66 65 65 65 65 65 64 64 62 61 60 60 60 58 59 65 66 65 64 60 59
Lifted_Index
-3 -3 -3 -3 -2 -2 -3 -3 -2 -3 -3 -3 -4 -4 -4 -4 -4 -4 -4 -3 -3 -4
-3 -3 -3 -3 -3 -3 -3 -2 -2 -2 -3 -3 -4 -4 -4 -3 -3 -3 -3 -3 -3 -3
-3 -3 -3 -3 -3 -3 -3 -3 -2 -2 -3 -3 -3 -3 -3 -3 -3 -3 -3 -3 -3 -3
-2 -3 -3 -3 -3 -3 -3 -3 -3 -3 -3 -3 -3 -3 -3 -3 -3 -3 -3 -3 -3 -3
-2 -2 -2 -3 -3 -3 -3 -3 -3 -3 -3 -3 -3 -3 -3 -3 -3 -3 -3 -3 -3 -3
-1 -2 -2 -2 -3 -3 -3 -3 -4 -4 -4 -3 -3 -3 -3 -3 -3 -3 -3 -3 -3 -3
-2 -2 -2 -2 -2 -3 -3 -3 -3 -4 -4 -4 -3 -3 -3 -3 -4 -4 -4 -4 -4 -4
-2 -2 -2 -2 -2 -2 -2 -3 -3 -3 -3 -4 -4 -4 -3 -4 -4 -4 -4 -4 -4 -4
-2 -2 -2 -2 -2 -2 -2 -2 -2 -3 -3 -3 -4 -4 -4 -4 -4 -4 -4 -4 -3 -4
-1 -2 -2 -2 -2 -2 -2 -2 -2 -2 -3 -3 -3 -4 -4 -4 -4 -4 -4 -4 -4 -4
-0 -0 -1 -1 -1 -2 -2 -2 -2 -2 -3 -3 -3 -3 -4 -4 -4 -4 -4 -4 -4 -4
0 0 0 -0 -1 -1 -1 -2 -2 -2 -2 -3 -3 -3 -3 -3 -3 -3 -3 -3 -4 -4
-0 0 0 0 -0 -0 -1 -1 -2 -2 -2 -2 -3 -3 -3 -3 -3 -3 -3 -3 -3 -3
-0 0 0 0 -0 -0 -0 -1 -1 -2 -2 -2 -2 -2 -2 -2 -2 -2 -2 -2 -2 -2